This demonstration page uses our WeatherBlox Daily Observations layout. Learn more.

Left ArrowRight Arrow

Hourly Observations for October 24, 2018

Temp ( °F °C ) Dew Point ( °F °C ) Humidity (%) Winds ( mph kmh ) Pressure ( in mb ) Visibility ( mi km ) Precip ( " mm )
12:53 am 00:53 Clear 48 8.9 31 -0.6 52 52 SE 9 15 30.27 1025 10 16 0.00 0.00
1:53 am 01:53 Clear 47 8.3 32 0 56 56 SE 8 13 30.27 1025 10 16 0.00 0.00
2:53 am 02:53 Clear 46 7.8 32 0 58 58 SE 9 15 30.26 1025 10 16 0.00 0.00
3:53 am 03:53 Clear 45 7.2 32 0 61 61 SE 9 15 30.25 1024 10 16 0.00 0.00
4:53 am 04:53 Clear 45 7.2 32 0 61 61 SE 9 15 30.24 1024 10 16 0.00 0.00
5:53 am 05:53 Mostly Cloudy 44 6.7 32 0 63 63 SE 8 13 30.25 1024 10 16 0.00 0.00
6:53 am 06:53 Cloudy 43 6.1 32 0 65 65 SSE 8 13 30.26 1025 10 16 0.00 0.00
7:53 am 07:53 Mostly Cloudy 42 5.6 32 0 68 68 SSE 9 15 30.24 1024 10 16 0.00 0.00
8:53 am 08:53 Mostly Cloudy 43 6.1 33 0.6 68 68 SSE 8 13 30.25 1025 10 16 0.00 0.00
9:53 am 09:53 Sunny 47 8.3 34 1.1 61 61 SSE 12 19 30.24 1024 10 16 0.00 0.00
10:53 am 10:53 Sunny 49 9.4 35 1.7 59 59 SSE 14 22 30.24 1024 10 16 0.00 0.00
11:53 am 11:53 Cloudy 54 12.2 36 2.2 51 51 S 15 24 30.22 1023 10 16 0.00 0.00
12:53 pm 12:53 Cloudy 55 12.8 37 2.8 51 51 SSE 12 19 30.20 1023 10 16 0.00 0.00
1:53 pm 13:53 Cloudy 56 13.3 39 3.9 53 53 SSE 9 15 30.17 1022 10 16 0.00 0.00
2:53 pm 14:53 Partly Cloudy 60 15.6 43 6.1 53 53 S 12 19 30.14 1021 10 16 0.00 0.00
3:53 pm 15:53 Cloudy 59 15 44 6.7 58 58 S 10 17 30.13 1020 10 16 0.00 0.00
4:53 pm 16:53 Cloudy 59 15 44 6.7 58 58 S 9 15 30.12 1020 10 16 0.00 0.00
5:53 pm 17:53 Cloudy 58 14.4 44 6.7 60 60 SE 5 7 30.12 1020 10 16 0.00 0.00
6:53 pm 18:53 Partly Cloudy 57 13.9 43 6.1 60 60 SSE 8 13 30.11 1020 10 16 0.00 0.00
7:53 pm 19:53 Mostly Cloudy 55 12.8 45 7.2 69 69 SSE 6 9 30.11 1020 10 16 0.00 0.00
8:53 pm 20:53 Cloudy 54 12.2 44 6.7 69 69 SSE 8 13 30.11 1020 10 16 0.00 0.00
9:53 pm 21:53 Cloudy with Light Rain 52 11.1 46 7.8 80 80 S 6 9 30.12 1020 7 11 0.00 0.03
10:01 pm 22:01 Cloudy with Light Rain 52 11.1 47 8.3 83 83 S 7 11 30.09 1019 7 11 0.01 0.25
10:30 pm 22:30 Cloudy with Light Rain 50 10 47 8.3 89 89 SW 9 15 30.12 1020 7 11 0.03 0.76
10:53 pm 22:53 Cloudy with Light Rain 49 9.4 47 8.3 93 93 SW 7 11 30.13 1020 5 8 0.06 1.52
11:53 pm 23:53 Cloudy with Light Rain 47 8.3 45 7.2 93 93 SW 6 9 30.11 1020 5 8 0.08 2.03

Powered by AerisWeather